Location: Six Mile Lake
(44.9000°N, 79.7170°W)
Time: 12:57:32
(UTC-04:00)

ESTCUBE 1 - Pass Details

Date: 02 July 2022
Orbit: 645 x 657 km, 97.9° (Epoch: 19 August)

Event Time Altitude Azimuth Distance (km) Brightness Sun altitude
Exits shadow 00:06:00 25° 221° (SW) 1,313 ? -19.8°
Maximum altitude 00:07:47 34° 263° (W) 1,069 ? -19.9°
Drops below altitude 10° 00:11:52 10° 329° (NNW) 2,058 ? -20.2°
Sets 00:14:17 0° 339° (NNW) 2,976 ? -20.3°
